Avalon, CA

1:24 AM PDT on July 30, 2016 (GMT -0700)
Catalina

Weather History for KAVX - August, 2013

Change the Weather History Date:

Tuesday, August 6, 2013

  Actual Average Record
Temperature  
Mean Temperature 60 °F -  
Max Temperature 71 °F 76 °F 93 °F (2012)
Min Temperature 53 °F 60 °F 53 °F (2010)
Degree Days  
Heating Degree Days 4    
Growing Degree Days 10 (Base 50)    
Moisture  
Dew Point 53 °F    
Average Humidity 85    
Maximum Humidity 97    
Minimum Humidity 43    
Precipitation  
Precipitation 0.00 in - - ()
Sea Level Pressure  
Sea Level Pressure 30.01 in    
Wind  
Wind Speed 5 mph (WSW)    
Max Wind Speed 14 mph    
Max Gust Speed -    
Visibility 4 miles    
Events Fog    
Averages and records for this station are not official NWS values.
T = Trace of Precipitation, MM = Missing Value Source: NWS Daily Summary

Daily Weather History Graph

Daily Weather History Graph

Search for Another Location

Airport or City:

Trip Planner

Search our weather history database for the weather conditions in past years. The results will help you decide how hot, cold, wet, or windy it might be!

Date:

Astronomy

Aug. 06, 2013 Rise Set
Actual Time 6:10 AM PDT 7:48 PM PDT
Civil Twilight 5:43 AM PDT 8:15 PM PDT
Nautical Twilight 5:11 AM PDT 8:47 PM PDT
Astronomical Twilight 4:37 AM PDT 9:21 PM PDT
Moon 6:02 AM PDT (8/6) 7:30 PM PDT (8/6)
Length of Visible Light 14h 31m
Length of Day
13h 38m
Waning Crescent, 0% of the Moon is Illuminated
Aug 6
Waning Crescent
Aug 6
New
Aug 14
First Quarter
Aug 20
Full
Aug 28
Last Quarter

Hourly Weather History & Observations

Time (PDT) Temp. Dew Point Humidity Pressure Visibility Wind Dir Wind Speed Gust Speed Precip Events Conditions
12:51 AM 55.0 °F 51.1 °F 86% 29.96 in 2.5 mi WSW 4.6 mph - N/A   Clear
12:53 AM 53.6 °F 51.8 °F 94% 30.01 in 1.5 mi WSW 3.5 mph - N/A   Partly Cloudy
1:03 AM 53.6 °F 51.8 °F 94% 30.00 in 3.0 mi WSW 3.5 mph - N/A   Partly Cloudy
1:33 AM 53.6 °F 50.0 °F 88% 30.00 in 1.2 mi WSW 4.6 mph - N/A   Partly Cloudy
1:40 AM 53.6 °F 51.8 °F 94% 30.00 in 0.2 mi SW 5.8 mph - N/A Fog Fog
1:51 AM 54.0 °F 53.1 °F 97% 29.96 in 0.2 mi SSW 3.5 mph - N/A Fog Fog
2:51 AM 54.0 °F 53.1 °F 97% 29.94 in 0.2 mi Calm Calm - N/A Fog Fog
3:51 AM 55.0 °F 54.0 °F 96% 29.95 in 0.2 mi Calm Calm - N/A Fog Fog
4:51 AM 55.0 °F 54.0 °F 96% 29.95 in 0.2 mi East 6.9 mph - N/A Fog Fog
5:51 AM 55.0 °F 53.1 °F 93% 29.96 in 0.5 mi East 8.1 mph - N/A Fog Fog
6:28 AM 55.4 °F 53.6 °F 94% 30.01 in 1.2 mi East 8.1 mph - N/A   Overcast
6:40 AM 55.4 °F 53.6 °F 94% 30.01 in 3.0 mi East 5.8 mph - N/A   Overcast
6:51 AM 55.0 °F 53.1 °F 93% 29.98 in 1.8 mi ESE 5.8 mph - N/A   Overcast
6:59 AM 55.4 °F 53.6 °F 94% 30.02 in 3.0 mi SE 4.6 mph - N/A   Mostly Cloudy
7:18 AM 55.4 °F 53.6 °F 94% 30.02 in 10.0 mi ESE 4.6 mph - N/A   Partly Cloudy
7:51 AM 57.0 °F 54.0 °F 89% 29.99 in 10.0 mi East 4.6 mph - N/A   Clear
8:51 AM 59.0 °F 54.0 °F 83% 30.01 in 10.0 mi West 5.8 mph - N/A   Clear
9:51 AM 62.1 °F 54.0 °F 75% 30.02 in 10.0 mi West 5.8 mph - N/A   Clear
10:51 AM 66.9 °F 55.9 °F 68% 30.01 in 10.0 mi NNE 5.8 mph - N/A   Clear
11:51 AM 66.9 °F 55.0 °F 66% 30.03 in 10.0 mi WNW 5.8 mph - N/A   Clear
12:51 PM 68.0 °F 55.0 °F 63% 30.02 in 10.0 mi Variable 4.6 mph - N/A   Clear
1:51 PM 68.0 °F 54.0 °F 61% 30.02 in 10.0 mi West 6.9 mph - N/A   Clear
2:51 PM 66.9 °F 55.0 °F 66% 30.02 in 10.0 mi WSW 9.2 mph - N/A   Clear
3:51 PM 63.0 °F 54.0 °F 72% 30.01 in 10.0 mi SW 11.5 mph - N/A   Clear
4:51 PM 63.0 °F 54.0 °F 72% 30.01 in 10.0 mi SW 13.8 mph - N/A   Clear
5:51 PM 62.1 °F 54.0 °F 75% 30.00 in 10.0 mi WSW 9.2 mph - N/A   Clear
6:51 PM 64.0 °F 54.0 °F 70% 29.99 in 10.0 mi SW 3.5 mph - N/A   Clear
7:26 PM 57.2 °F 53.6 °F 88% 30.03 in 2.0 mi SW 10.4 mph - N/A   Partly Cloudy
7:29 PM 57.2 °F 53.6 °F 88% 30.02 in 1.0 mi SW 11.5 mph - N/A   Mist
7:37 PM 57.2 °F 53.6 °F 88% 30.02 in 0.2 mi SW 10.4 mph - N/A Fog Fog
7:51 PM 55.9 °F 54.0 °F 93% 30.00 in 0.2 mi SW 9.2 mph - N/A Fog Fog
8:30 PM 55.4 °F 53.6 °F 94% 30.03 in 1.5 mi West 3.5 mph - N/A   Mostly Cloudy
8:32 PM 55.4 °F 53.6 °F 94% 30.03 in 4.0 mi Calm Calm - N/A   Mostly Cloudy
8:43 PM 66.2 °F 42.8 °F 43% 30.03 in 10.0 mi NW 5.8 mph - N/A   Scattered Clouds
8:51 PM 63.0 °F 46.0 °F 54% 30.00 in 10.0 mi Calm Calm - N/A   Partly Cloudy
9:36 PM 55.4 °F 51.8 °F 88% 30.05 in 1.2 mi SW 8.1 mph - N/A   Partly Cloudy
9:43 PM 55.4 °F 51.8 °F 88% 30.05 in 0.2 mi SW 9.2 mph - N/A Fog Fog
9:51 PM 55.0 °F 53.1 °F 93% 30.03 in 0.2 mi SW 8.1 mph - N/A Fog Fog
10:51 PM 55.0 °F 53.1 °F 93% 30.02 in 0.2 mi West 3.5 mph - N/A Fog Fog
11:06 PM 53.6 °F 51.8 °F 94% 30.06 in 1.5 mi Calm Calm - N/A   Scattered Clouds
11:09 PM 53.6 °F 51.8 °F 94% 30.06 in 0.8 mi Calm Calm - N/A   Mist
11:18 PM 53.6 °F 51.8 °F 94% 30.06 in 1.5 mi WNW 3.5 mph - N/A   Partly Cloudy
11:25 PM 53.6 °F 48.2 °F 82% 30.06 in 10.0 mi WNW 5.8 mph - N/A   Partly Cloudy
11:36 PM 53.6 °F 51.8 °F 94% 30.05 in 2.5 mi NW 4.6 mph - N/A   Partly Cloudy
11:51 PM 54.0 °F 46.9 °F 77% 30.02 in 8.0 mi WNW 4.6 mph - N/A   Clear